User: anonymous   Login
Location: Unspecified
(50.7693°N, 0.0000°E)
Time: 13:18:36
(UTC+00:00)
Language:

SR - Orbit

View from above orbital plane
View from above orbital plane
View from above satellite
View from above satellite

Ground track
Ground track

The orbit data is extracted from the following two-line orbital elements,

1    46U 60007B   19170.50336572 -.00000104  00000-0  23899-5 0  9994
2    46  66.6909 309.8928 0205230  40.8505 320.7780 14.49230593 86361
Epoch (UTC): 19 June 2019 12:04:50
Eccentricity: 0.0205230
inclination: 66.6909°
perigee height: 582 km
apogee height: 874 km
right ascension of ascending node: 309.8928°
argument of perigee: 40.8505°
revolutions per day: 14.49230593
mean anomaly at epoch: 320.7780°
orbit number at epoch: 8636

The dashed part of the orbit path shows where the satellite is in the earth's shadow,  

DLR